Date String (YYYY-MM-DD hh:mm:ss) UTC,Instrument flags,absolute air pressure of the measurement (hPa),sample flow rate (lpm),inlet stack bypass flow (lpm),air temperature of the measurement (°C),ambient temperature measured by the external sensor (°C),aerosol sample conditioner tube jacket temperature (°C),OPC LED temperature (°C),internal box temperature (°C),relative humidity of the measurement (%),span deviation,mass concentration of particles derived from Lorenz-Mie calculation of OPC scattering (μg/m³),mass concentration of particles derived from Lorenz-Mie calculation of OPC scattering (μg/m³),mass concentration of particles derived from Lorenz-Mie calculation of OPC scattering (μg/m³)
DateTimeUTC,F1_M11,P_M11,Q1_M11,Q2_M11,T1_M11,T2_M11,T3_M11,T4_M11,T5_M11,U1_M11,ZSPAN_M11,X0_M11,X2_M11,X1_M11
2023-07-02 06:00:00,SystemResetWarning,0833.7,5.00,000.00,029.4,028.0,000.0,037.9,031.0,25.5,0000.0,0008.24,0004.03,0003.78
2023-07-02 06:01:00,SystemResetWarning,0833.6,5.00,000.00,029.4,028.1,000.0,037.9,031.0,25.4,0000.0,0008.57,0004.08,0003.79
2023-07-02 06:02:00,SystemResetWarning,0833.6,5.00,000.00,029.4,028.2,000.0,037.9,031.0,25.2,0000.0,0008.47,0004.10,0003.80
2023-07-02 06:03:00,SystemResetWarning,0833.6,5.00,000.00,029.4,028.3,000.0,037.9,031.1,25.3,0000.0,0008.56,0004.12,0003.80
2023-07-02 06:04:00,SystemResetWarning,0833.6,5.01,000.00,029.5,028.3,000.0,038.0,031.1,25.6,0000.0,0008.17,0004.13,0003.81
2023-07-02 06:05:00,SystemResetWarning,0833.6,5.00,000.00,029.5,028.4,000.0,038.0,031.1,25.7,0000.0,0008.19,0004.14,0003.80
2023-07-02 06:06:00,SystemResetWarning,0833.6,5.00,000.00,029.5,028.4,000.0,038.0,031.2,25.8,0000.0,0008.45,0004.17,0003.81
2023-07-02 06:07:00,SystemResetWarning,0833.6,5.00,000.00,029.6,028.4,000.0,038.0,031.2,26.0,0000.0,0008.60,0004.16,0003.82
2023-07-02 06:08:00,SystemResetWarning,0833.6,5.00,000.00,029.6,028.5,000.0,038.0,031.2,25.8,0000.0,0008.67,0004.16,0003.81
2023-07-02 06:09:00,SystemResetWarning,0833.5,5.00,000.00,029.6,028.5,000.0,038.1,031.2,25.4,0000.0,0008.71,0004.14,0003.81
2023-07-02 06:10:00,SystemResetWarning,0833.6,4.99,000.00,029.6,028.5,000.0,038.1,031.2,26.0,0000.0,0008.84,0004.16,0003.82
2023-07-02 06:11:00,SystemResetWarning,0833.6,5.00,000.00,029.7,028.5,000.0,038.1,031.3,25.9,0000.0,0007.78,0004.15,0003.82
2023-07-02 06:12:00,SystemResetWarning,0833.6,4.99,000.00,029.7,028.6,000.0,038.1,031.3,25.5,0000.0,0007.54,0004.14,0003.82
2023-07-02 06:13:00,SystemResetWarning,0833.7,5.00,000.00,029.7,027.8,000.0,038.1,031.2,25.3,0000.0,0007.52,0004.14,0003.83
2023-07-02 06:14:00,SystemResetWarning,0833.6,5.00,000.00,029.6,025.8,000.0,038.0,031.0,25.7,0000.0,0007.40,0004.12,0003.82
2023-07-02 06:15:00,SystemResetWarning,0833.6,5.00,000.00,029.5,025.1,000.0,037.9,030.8,26.0,-000.3,0007.44,0004.10,0003.82
2023-07-02 06:16:00,SystemResetWarning,0833.7,5.01,000.00,029.4,025.3,000.0,037.9,030.5,26.6,0000.0,0007.49,0004.12,0003.84
2023-07-02 06:17:00,SystemResetWarning,0833.6,5.01,000.00,029.3,025.7,000.0,037.9,030.5,27.0,-000.3,0007.33,0004.14,0003.84
2023-07-02 06:18:00,SystemResetWarning,0833.7,5.00,000.00,029.3,026.1,000.0,037.9,030.5,27.3,0000.0,0007.17,0004.16,0003.86
2023-07-02 06:19:00,SystemResetWarning,0833.7,4.99,000.00,029.3,026.5,000.0,037.9,030.6,26.8,0000.0,0006.98,0004.16,0003.87
2023-07-02 06:20:00,SystemResetWarning,0833.7,5.01,000.00,029.3,026.8,000.0,037.9,030.7,26.7,0000.0,0006.78,0004.17,0003.88
2023-07-02 06:21:00,SystemResetWarning,0833.7,5.00,000.00,029.3,027.1,000.0,037.9,030.7,26.6,0000.0,0006.67,0004.16,0003.87
2023-07-02 06:22:00,SystemResetWarning,0833.7,5.00,000.00,029.3,027.3,000.0,037.9,030.8,26.6,0000.0,0007.38,0004.18,0003.88
2023-07-02 06:23:00,SystemResetWarning,0833.8,5.01,000.00,029.3,027.4,000.0,037.9,030.8,26.9,0000.0,0007.68,0004.19,0003.88
2023-07-02 06:24:00,SystemResetWarning,0833.8,5.00,000.00,029.3,027.6,000.0,037.9,030.8,26.9,0000.0,0007.67,0004.17,0003.87
2023-07-02 06:25:00,SystemResetWarning,0833.8,4.99,000.00,029.3,027.7,000.0,037.9,030.8,27.2,0000.0,0007.79,0004.22,0003.89
2023-07-02 06:26:00,SystemResetWarning,0833.9,4.99,000.00,029.3,027.8,000.0,037.9,030.9,27.6,0000.0,0007.74,0004.25,0003.90
2023-07-02 06:27:00,SystemResetWarning,0834.0,5.00,000.00,029.3,027.9,000.0,037.9,030.9,28.2,0000.0,0007.76,0004.27,0003.91
2023-07-02 06:28:00,SystemResetWarning,0834.0,5.00,000.00,029.3,028.0,000.0,037.9,030.9,28.8,0000.0,0007.71,0004.28,0003.93
2023-07-02 06:29:00,SystemResetWarning,0834.0,5.00,000.00,029.4,028.0,000.0,037.9,030.9,29.0,0000.0,0007.71,0004.29,0003.94
2023-07-02 06:30:00,SystemResetWarning,0834.0,5.00,000.00,029.4,028.1,000.0,037.9,030.9,28.9,0000.0,0007.81,0004.33,0003.95
2023-07-02 06:31:00,SystemResetWarning,0833.9,4.99,000.00,029.4,028.1,000.0,037.9,031.0,29.1,-000.9,0007.84,0004.34,0003.96
2023-07-02 06:32:00,SystemResetWarning,0834.0,5.00,000.00,029.4,028.1,000.0,037.9,031.0,28.1,0000.0,0007.95,0004.42,0003.99
2023-07-02 06:33:00,SystemResetWarning,0834.0,5.00,000.00,029.4,028.2,000.0,037.9,031.0,27.8,0000.0,0007.61,0004.47,0004.02
2023-07-02 06:34:00,SystemResetWarning,0833.8,5.01,000.00,029.5,028.2,000.0,038.0,031.1,28.1,0000.0,0007.50,0004.48,0004.05
2023-07-02 06:35:00,SystemResetWarning,0833.9,5.00,000.00,029.5,028.3,000.0,038.0,031.1,28.3,0000.0,0007.48,0004.49,0004.06
2023-07-02 06:36:00,SystemResetWarning,0833.8,5.00,000.00,029.5,028.3,000.0,038.0,031.1,27.8,0000.0,0007.43,0004.49,0004.08
2023-07-02 06:37:00,SystemResetWarning,0833.8,4.99,000.00,029.5,028.4,000.0,038.0,031.1,27.7,0000.0,0007.98,0004.51,0004.09
2023-07-02 06:38:00,SystemResetWarning,0833.8,5.00,000.00,029.6,028.4,000.0,038.0,031.2,27.3,0000.0,0008.03,0004.48,0004.08
2023-07-02 06:39:00,SystemResetWarning,0833.8,5.00,000.00,029.6,028.4,000.0,038.1,031.2,27.3,0000.0,0008.12,0004.48,0004.06
2023-07-02 06:40:00,SystemResetWarning,0833.8,5.01,000.00,029.6,028.5,000.0,038.1,031.2,27.5,0000.0,0008.18,0004.47,0004.06
2023-07-02 06:41:00,SystemResetWarning,0833.7,5.00,000.00,029.6,028.5,000.0,038.1,031.2,27.2,0000.0,0008.48,0004.45,0004.05
2023-07-02 06:42:00,SystemResetWarning,0833.8,5.00,000.00,029.6,028.5,000.0,038.1,031.3,27.5,0000.0,0009.08,0004.45,0004.05
2023-07-02 06:43:00,SystemResetWarning,0833.7,5.00,000.00,029.7,028.6,000.0,038.1,031.3,27.5,0000.0,0009.40,0004.48,0004.04
2023-07-02 06:44:00,SystemResetWarning,0833.7,4.99,000.00,029.7,028.6,000.0,038.2,031.3,27.3,0000.0,0009.61,0004.48,0004.01
2023-07-02 06:45:00,SystemResetWarning,0833.8,5.00,000.00,029.7,028.6,000.0,038.2,031.3,27.4,0000.0,0010.14,0004.52,0004.00
2023-07-02 06:46:00,SystemResetWarning,0833.7,5.00,000.00,029.7,028.6,000.0,038.2,031.3,27.2,0000.0,0011.17,0004.53,0004.00
2023-07-02 06:47:00,SystemResetWarning,0833.7,5.00,000.00,029.8,028.7,000.0,038.2,031.4,26.9,0000.0,0011.80,0004.57,0004.00
2023-07-02 06:48:00,SystemResetWarning,0833.8,4.99,000.00,029.8,028.7,000.0,038.2,031.4,26.5,0000.0,0011.32,0004.57,0004.00
2023-07-02 06:49:00,SystemResetWarning,0833.8,4.99,000.00,029.8,028.7,000.0,038.3,031.4,26.1,0000.0,0011.24,0004.61,0004.00
2023-07-02 06:50:00,SystemResetWarning,0833.8,5.00,000.00,029.8,028.7,000.0,038.3,031.4,26.1,0000.0,0011.20,0004.60,0003.98
2023-07-02 06:51:00,SystemResetWarning,0833.8,5.00,000.00,029.8,027.6,000.0,038.2,031.3,26.0,0000.0,0011.48,0004.58,0003.98
2023-07-02 06:52:00,SystemResetWarning,0833.7,5.00,000.00,029.8,025.7,000.0,038.1,031.1,25.6,0000.0,0011.85,0004.59,0003.97
2023-07-02 06:53:00,SystemResetWarning,0833.7,5.00,000.00,029.7,025.1,000.0,038.0,030.8,25.6,0000.0,0011.26,0004.57,0003.96
2023-07-02 06:54:00,SystemResetWarning,0833.7,5.01,000.00,029.5,025.3,000.0,038.1,030.6,26.2,0000.0,0010.86,0004.51,0003.95
2023-07-02 06:55:00,SystemResetWarning,0833.7,5.01,000.00,029.4,025.7,000.0,038.1,030.6,27.4,0000.0,0010.46,0004.43,0003.94
2023-07-02 06:56:00,SystemResetWarning,0833.7,5.00,000.00,029.4,026.2,000.0,038.1,030.7,27.4,0000.3,0010.43,0004.39,0003.93
2023-07-02 06:57:00,SystemResetWarning,0833.6,4.99,000.00,029.4,026.5,000.0,038.1,030.7,26.7,0000.0,0009.73,0004.38,0003.93
2023-07-02 06:58:00,SystemResetWarning,0833.6,5.00,000.00,029.3,026.9,000.0,038.0,030.8,26.2,0000.0,0009.09,0004.34,0003.92
2023-07-02 06:59:00,SystemResetWarning,0833.6,5.00,000.00,029.4,027.2,000.0,038.0,030.8,26.0,0000.0,0008.90,0004.29,0003.91
